Location: Chicoutimi
(48.4330°N, 71.0670°W)
Time: 12:14:57

ISS - Visible Passes

Search period start: 27 November 2015 00:00
Search period end: 07 December 2015 00:00
Orbit: 397 x 411 km, 51.6° (Epoch: 26 November)

Date Brightness Start Highest point End Pass type
(mag) Time Alt. Az. Time Alt. Az. Time Alt. Az.
04 Dec -0.4 18:28:19 10° SSW 18:28:43 12° SSW 18:28:43 12° SSW visible
05 Dec -1.3 17:36:34 10° S 17:38:33 17° SE 17:38:33 17° SE visible
06 Dec -0.8 16:46:01 10° SE 16:46:30 10° SE 16:47:06 10° SE visible
06 Dec -1.5 18:19:10 10° SW 18:20:57 28° SW 18:20:57 28° SW visible
